TimeEST,TemperatureF,Dew PointF,Humidity,Sea Level PressureIn,VisibilityMPH,Wind Direction,Wind SpeedMPH,Gust SpeedMPH,PrecipitationIn,Events,Conditions,WindDirDegrees,DateUTC
12:15 AM,40.6,38.7,93,30.33,10.0,North,3.5,-,N/A,,Clear,360,2013-01-05 05:15:00
12:35 AM,39.7,38.1,94,30.34,10.0,North,5.8,-,N/A,,Clear,350,2013-01-05 05:35:00
12:55 AM,39.6,36.0,87,30.34,10.0,North,6.9,-,N/A,,Clear,360,2013-01-05 05:55:00
1:15 AM,39.4,33.4,79,30.34,10.0,North,6.9,-,N/A,,Clear,350,2013-01-05 06:15:00
1:35 AM,38.7,32.2,78,30.33,10.0,Calm,Calm,-,N/A,,Clear,0,2013-01-05 06:35:00
1:55 AM,37.9,32.0,79,30.34,10.0,Calm,Calm,-,N/A,,Clear,0,2013-01-05 06:55:00
2:15 AM,36.0,32.4,87,30.34,10.0,Calm,Calm,-,N/A,,Clear,0,2013-01-05 07:15:00
2:35 AM,34.7,33.1,94,30.33,10.0,Calm,Calm,-,N/A,,Clear,0,2013-01-05 07:35:00
2:55 AM,34.5,32.7,93,30.33,10.0,Calm,Calm,-,N/A,,Clear,0,2013-01-05 07:55:00
3:15 AM,34.0,33.6,99,30.34,10.0,Calm,Calm,-,N/A,,Clear,0,2013-01-05 08:15:00
3:35 AM,33.4,33.6,100,30.34,10.0,Calm,Calm,-,N/A,,Clear,0,2013-01-05 08:35:00
3:55 AM,33.3,33.3,100,30.34,10.0,Calm,Calm,-,N/A,,Clear,0,2013-01-05 08:55:00
4:15 AM,33.6,33.4,99,30.34,10.0,Calm,Calm,-,N/A,,Clear,0,2013-01-05 09:15:00
4:35 AM,33.8,32.7,96,30.34,10.0,Calm,Calm,-,N/A,,Clear,0,2013-01-05 09:35:00
4:55 AM,34.2,31.8,91,30.34,10.0,NNW,3.5,-,N/A,,Clear,340,2013-01-05 09:55:00
5:15 AM,34.0,30.6,87,30.33,10.0,North,5.8,-,N/A,,Clear,350,2013-01-05 10:15:00
5:35 AM,34.2,29.3,82,30.33,10.0,North,4.6,-,N/A,,Clear,360,2013-01-05 10:35:00
5:55 AM,34.2,28.8,81,30.34,10.0,North,5.8,-,N/A,,Clear,360,2013-01-05 10:55:00
6:15 AM,33.8,29.5,84,30.35,10.0,Calm,Calm,-,N/A,,Clear,0,2013-01-05 11:15:00
6:55 AM,32.4,29.1,88,30.35,10.0,Calm,Calm,-,N/A,,Clear,0,2013-01-05 11:55:00
7:55 AM,30.6,30.2,99,30.37,10.0,Calm,Calm,-,N/A,,Clear,0,2013-01-05 12:55:00
8:15 AM,32.2,29.8,91,30.38,10.0,North,3.5,-,N/A,,Clear,360,2013-01-05 13:15:00
8:35 AM,34.0,29.5,84,30.38,10.0,North,3.5,-,N/A,,Clear,10,2013-01-05 13:35:00
8:55 AM,35.4,29.3,78,30.38,10.0,North,3.5,-,N/A,,Scattered Clouds,10,2013-01-05 13:55:00
9:35 AM,38.5,29.8,71,30.39,10.0,NNE,5.8,-,N/A,,Clear,30,2013-01-05 14:35:00
9:55 AM,39.9,30.2,68,30.39,10.0,ENE,6.9,-,N/A,,Clear,70,2013-01-05 14:55:00
10:15 AM,41.7,31.3,66,30.39,10.0,East,4.6,-,N/A,,Clear,80,2013-01-05 15:15:00
10:35 AM,43.2,32.0,65,30.39,10.0,NE,3.5,-,N/A,,Clear,40,2013-01-05 15:35:00
10:55 AM,44.8,32.5,62,30.39,10.0,Calm,Calm,-,N/A,,Clear,0,2013-01-05 15:55:00
11:15 AM,46.8,33.3,59,30.39,10.0,Calm,Calm,-,N/A,,Clear,0,2013-01-05 16:15:00
11:35 AM,48.4,33.1,56,30.38,10.0,Calm,Calm,-,N/A,,Clear,0,2013-01-05 16:35:00
11:55 AM,49.6,32.9,53,30.36,10.0,Calm,Calm,-,N/A,,Clear,0,2013-01-05 16:55:00
12:15 PM,50.9,32.5,49,30.35,10.0,East,3.5,-,N/A,,Clear,90,2013-01-05 17:15:00
12:35 PM,51.8,32.2,47,30.34,10.0,Calm,Calm,-,N/A,,Clear,0,2013-01-05 17:35:00
12:55 PM,52.2,32.4,47,30.33,10.0,Calm,Calm,-,N/A,,Clear,0,2013-01-05 17:55:00
1:15 PM,53.4,32.4,45,30.31,10.0,ESE,3.5,-,N/A,,Clear,110,2013-01-05 18:15:00
1:35 PM,53.8,32.2,44,30.30,10.0,Calm,Calm,-,N/A,,Clear,0,2013-01-05 18:35:00
1:55 PM,54.1,32.2,43,30.30,10.0,Calm,Calm,-,N/A,,Clear,0,2013-01-05 18:55:00
2:35 PM,54.3,32.9,44,30.29,10.0,Calm,Calm,-,N/A,,Clear,0,2013-01-05 19:35:00
2:55 PM,54.7,33.4,45,30.30,10.0,Calm,Calm,-,N/A,,Clear,0,2013-01-05 19:55:00
3:15 PM,56.1,34.0,43,30.30,10.0,NNW,3.5,-,N/A,,Clear,340,2013-01-05 20:15:00
3:55 PM,55.0,34.2,45,30.29,10.0,Calm,Calm,-,N/A,,Clear,0,2013-01-05 20:55:00
4:15 PM,54.7,33.8,45,30.29,10.0,Calm,Calm,-,N/A,,Clear,0,2013-01-05 21:15:00
4:35 PM,54.3,34.9,48,30.28,10.0,Calm,Calm,-,N/A,,Clear,0,2013-01-05 21:35:00
5:15 PM,53.2,38.7,58,30.29,10.0,Calm,Calm,-,N/A,,Clear,0,2013-01-05 22:15:00
5:55 PM,50.2,42.3,74,30.30,10.0,Calm,Calm,-,N/A,,Clear,0,2013-01-05 22:55:00
6:15 PM,50.0,42.1,74,30.31,10.0,Calm,Calm,-,N/A,,Clear,0,2013-01-05 23:15:00
6:35 PM,49.1,42.8,79,30.30,10.0,Calm,Calm,-,N/A,,Clear,0,2013-01-05 23:35:00
7:15 PM,48.6,43.3,82,30.32,10.0,Calm,Calm,-,N/A,,Clear,0,2013-01-06 00:15:00
7:55 PM,48.6,41.9,78,30.30,10.0,Calm,Calm,-,N/A,,Mostly Cloudy,0,2013-01-06 00:55:00
8:15 PM,49.1,40.6,73,30.30,10.0,Calm,Calm,-,N/A,Rain,Light Rain,0,2013-01-06 01:15:00
8:55 PM,47.3,44.8,91,30.30,10.0,Calm,Calm,-,N/A,Rain,Light Rain,0,2013-01-06 01:55:00
9:15 PM,46.9,44.8,92,30.32,10.0,Calm,Calm,-,N/A,,Mostly Cloudy,0,2013-01-06 02:15:00
9:35 PM,46.8,43.9,90,30.33,10.0,Calm,Calm,-,N/A,,Overcast,0,2013-01-06 02:35:00
9:55 PM,46.9,43.5,88,30.32,10.0,Calm,Calm,-,N/A,,Overcast,0,2013-01-06 02:55:00
10:15 PM,46.8,44.4,92,30.33,10.0,Calm,Calm,-,N/A,,Overcast,0,2013-01-06 03:15:00
10:35 PM,46.6,45.1,95,30.33,10.0,Calm,Calm,-,N/A,,Mostly Cloudy,0,2013-01-06 03:35:00
10:55 PM,46.8,45.7,96,30.31,10.0,Calm,Calm,-,N/A,,Scattered Clouds,0,2013-01-06 03:55:00
11:15 PM,46.6,44.6,93,30.30,10.0,Calm,Calm,-,N/A,Rain,Light Rain,0,2013-01-06 04:15:00
11:35 PM,46.2,44.4,93,30.30,10.0,Calm,Calm,-,N/A,,Light Drizzle,0,2013-01-06 04:35:00
11:55 PM,46.4,43.9,91,30.30,10.0,Calm,Calm,-,N/A,,Light Drizzle,0,2013-01-06 04:55:00